TimeCDT,TemperatureF,Dew PointF,Humidity,Sea Level PressureIn,VisibilityMPH,Wind Direction,Wind SpeedMPH,Gust SpeedMPH,PrecipitationIn,Events,Conditions,WindDirDegrees,DateUTC
12:15 AM,42.8,33.8,70,29.89,10.0,NW,8.1,-,N/A,,Clear,320,2012-11-02 05:15:00
12:35 AM,41.0,33.8,76,29.90,-9999.0,NNW,9.2,-,N/A,,Clear,330,2012-11-02 05:35:00
12:55 AM,-9999,-9999,N/A,29.90,10.0,NNW,11.5,-,N/A,,Clear,330,2012-11-02 05:55:00
1:15 AM,39.2,33.8,81,29.90,10.0,NNW,11.5,-,N/A,,Clear,330,2012-11-02 06:15:00
1:35 AM,39.2,33.8,81,29.91,10.0,NNW,10.4,-,N/A,,Clear,330,2012-11-02 06:35:00
1:55 AM,39.2,32.0,75,29.91,10.0,NNW,8.1,-,N/A,,Clear,340,2012-11-02 06:55:00
2:15 AM,37.4,32.0,81,29.92,10.0,NNW,11.5,-,N/A,,Clear,340,2012-11-02 07:15:00
2:35 AM,37.4,30.2,75,29.92,10.0,North,11.5,-,N/A,,Clear,350,2012-11-02 07:35:00
2:55 AM,37.4,30.2,75,29.93,10.0,North,12.7,-,N/A,,Clear,350,2012-11-02 07:55:00
3:35 AM,35.6,30.2,81,29.94,10.0,North,8.1,-,N/A,,Clear,350,2012-11-02 08:35:00
3:55 AM,33.8,30.2,87,29.94,10.0,North,6.9,-,N/A,,Clear,360,2012-11-02 08:55:00
4:15 AM,33.8,28.4,81,29.96,10.0,NNW,5.8,-,N/A,,Clear,340,2012-11-02 09:15:00
4:35 AM,32.0,28.4,87,29.96,10.0,NNW,5.8,-,N/A,,Clear,340,2012-11-02 09:35:00
4:55 AM,-9999,28.4,N/A,29.97,10.0,North,5.8,-,N/A,,Clear,350,2012-11-02 09:55:00
5:15 AM,30.2,28.4,93,29.97,10.0,North,5.8,-,N/A,,Clear,350,2012-11-02 10:15:00
5:35 AM,30.2,28.4,93,29.98,10.0,North,5.8,-,N/A,,Clear,350,2012-11-02 10:35:00
5:55 AM,30.2,28.4,93,29.99,10.0,North,4.6,-,N/A,,Clear,360,2012-11-02 10:55:00
6:15 AM,30.2,28.4,93,30.00,10.0,NNW,6.9,-,N/A,,Clear,340,2012-11-02 11:15:00
6:35 AM,30.2,26.6,86,30.01,10.0,North,5.8,-,N/A,,Clear,350,2012-11-02 11:35:00
6:55 AM,30.2,28.4,93,30.01,10.0,NNW,5.8,-,N/A,,Clear,340,2012-11-02 11:55:00
8:55 AM,35.6,30.2,81,30.06,10.0,North,8.1,-,N/A,,Clear,10,2012-11-02 13:55:00
9:15 AM,37.4,30.2,75,30.06,10.0,NNE,8.1,-,N/A,,Clear,20,2012-11-02 14:15:00
9:35 AM,37.4,30.2,75,30.08,10.0,NNE,9.2,-,N/A,,Clear,20,2012-11-02 14:35:00
9:55 AM,39.2,32.0,75,30.08,7.0,NNE,5.8,-,N/A,,Clear,20,2012-11-02 14:55:00
10:15 AM,42.8,32.0,66,30.09,7.0,NE,5.8,-,N/A,,Clear,50,2012-11-02 15:15:00
10:35 AM,44.6,32.0,61,30.08,5.0,NE,8.1,-,N/A,,Haze,50,2012-11-02 15:35:00
10:55 AM,44.6,32.0,61,30.08,10.0,NE,5.8,-,N/A,,Clear,40,2012-11-02 15:55:00
11:15 AM,46.4,32.0,57,30.08,10.0,ENE,8.1,-,N/A,,Clear,70,2012-11-02 16:15:00
11:35 AM,46.4,30.2,53,30.08,4.0,ENE,5.8,-,N/A,,Haze,70,2012-11-02 16:35:00
11:55 AM,48.2,32.0,54,30.08,7.0,NE,6.9,-,N/A,,Clear,50,2012-11-02 16:55:00
12:15 PM,48.2,30.2,50,30.08,10.0,NNE,5.8,-,N/A,,Clear,20,2012-11-02 17:15:00
12:35 PM,48.2,30.2,50,30.08,2.0,NNE,4.6,-,N/A,,Haze,30,2012-11-02 17:35:00
12:55 PM,48.2,28.4,46,30.07,7.0,NE,4.6,-,N/A,,Clear,50,2012-11-02 17:55:00
1:15 PM,48.2,30.2,50,30.07,10.0,Calm,Calm,-,N/A,,Clear,0,2012-11-02 18:15:00
1:35 PM,50.0,28.4,43,30.07,10.0,NE,3.5,-,N/A,,Clear,50,2012-11-02 18:35:00
1:55 PM,50.0,30.2,47,30.06,10.0,NE,5.8,-,N/A,,Clear,50,2012-11-02 18:55:00
2:15 PM,50.0,28.4,43,30.05,7.0,ENE,5.8,-,N/A,,Clear,70,2012-11-02 19:15:00
2:35 PM,51.8,28.4,41,30.05,10.0,North,4.6,-,N/A,,Clear,10,2012-11-02 19:35:00
2:55 PM,51.8,28.4,41,30.04,7.0,North,6.9,-,N/A,,Clear,10,2012-11-02 19:55:00
3:15 PM,51.8,28.4,41,30.04,10.0,ENE,4.6,-,N/A,,Clear,60,2012-11-02 20:15:00
3:35 PM,51.8,28.4,41,30.05,10.0,NE,4.6,-,N/A,,Clear,50,2012-11-02 20:35:00
3:55 PM,51.8,28.4,41,30.04,10.0,NE,5.8,-,N/A,,Clear,40,2012-11-02 20:55:00
4:15 PM,51.8,28.4,41,30.04,2.5,NNE,5.8,-,N/A,,Haze,30,2012-11-02 21:15:00
4:35 PM,50.0,28.4,43,30.04,1.2,NE,6.9,-,N/A,,Haze,50,2012-11-02 21:35:00
4:55 PM,50.0,28.4,43,30.05,1.2,NE,6.9,-,N/A,,Haze,50,2012-11-02 21:55:00
5:15 PM,48.2,28.4,46,30.05,2.0,ENE,3.5,-,N/A,,Haze,70,2012-11-02 22:15:00
5:35 PM,48.2,28.4,46,30.04,1.2,East,4.6,-,N/A,,Haze,80,2012-11-02 22:35:00
5:55 PM,46.4,28.4,50,30.04,0.5,Calm,Calm,-,N/A,,Haze,0,2012-11-02 22:55:00
6:15 PM,46.4,28.4,50,30.05,0.8,Calm,Calm,-,N/A,,Haze,0,2012-11-02 23:15:00
6:35 PM,46.4,28.4,50,30.05,1.0,Calm,Calm,-,N/A,,Haze,0,2012-11-02 23:35:00
6:55 PM,44.6,28.4,53,30.06,0.8,Calm,Calm,-,N/A,,Haze,0,2012-11-02 23:55:00
7:15 PM,44.6,28.4,53,30.07,1.0,Calm,Calm,-,N/A,,Haze,0,2012-11-03 00:15:00
7:35 PM,42.8,30.2,61,30.06,0.5,East,4.6,-,N/A,,Haze,90,2012-11-03 00:35:00
7:55 PM,42.8,30.2,61,30.06,0.2,East,4.6,-,N/A,,Haze,90,2012-11-03 00:55:00
8:15 PM,42.8,28.4,57,30.05,0.5,East,4.6,-,N/A,,Haze,90,2012-11-03 01:15:00
8:35 PM,42.8,30.2,61,30.06,0.5,East,4.6,-,N/A,,Haze,90,2012-11-03 01:35:00
8:55 PM,42.8,28.4,57,30.06,0.5,ENE,4.6,-,N/A,,Haze,70,2012-11-03 01:55:00
9:15 PM,42.8,30.2,61,30.06,0.5,ENE,4.6,-,N/A,,Haze,60,2012-11-03 02:15:00
9:35 PM,42.8,28.4,57,30.06,0.5,East,8.1,-,N/A,,Haze,80,2012-11-03 02:35:00
9:55 PM,42.8,28.4,57,30.07,0.5,East,6.9,-,N/A,,Haze,80,2012-11-03 02:55:00
10:15 PM,42.8,28.4,57,30.07,10.0,East,8.1,-,N/A,,Clear,80,2012-11-03 03:15:00
10:35 PM,42.8,28.4,57,30.08,10.0,East,6.9,-,N/A,,Clear,90,2012-11-03 03:35:00
10:55 PM,41.0,28.4,61,30.08,10.0,East,6.9,-,N/A,,Clear,80,2012-11-03 03:55:00
11:15 PM,41.0,28.4,61,30.09,10.0,East,5.8,-,N/A,,Clear,80,2012-11-03 04:15:00
11:35 PM,41.0,26.6,57,30.09,10.0,East,6.9,-,N/A,,Clear,80,2012-11-03 04:35:00
11:55 PM,39.2,28.4,65,30.09,10.0,East,5.8,-,N/A,,Clear,100,2012-11-03 04:55:00